Time,TemperatureF,DewpointF,PressureIn,WindDirection,WindDirectionDegrees,WindSpeedMPH,WindSpeedGustMPH,Humidity,HourlyPrecipIn,Conditions,Clouds,dailyrainin,SolarRadiationWatts/m^2,SoftwareType,DateUTC
2013-04-20 00:01:00,46.0,35.0,-100.00,North,-999,-999.0,9.0,65,0.00,,,-99.99,0.000000,,2013-04-20 06:01:00,
2013-04-20 00:12:00,45.0,34.0,-100.00,North,-999,-999.0,7.0,65,0.00,,,-99.99,0.000000,,2013-04-20 06:12:00,
2013-04-20 00:21:00,45.0,35.0,-100.00,North,-999,-999.0,11.0,66,0.00,,,-99.99,0.000000,,2013-04-20 06:21:00,
2013-04-20 00:31:00,45.0,35.0,-100.00,North,-999,-999.0,8.0,67,0.00,,,-99.99,0.000000,,2013-04-20 06:31:00,
2013-04-20 00:42:00,45.0,35.0,-100.00,North,-999,-999.0,5.0,67,0.00,,,-99.99,0.000000,,2013-04-20 06:42:00,
2013-04-20 00:52:00,44.0,35.0,-100.00,North,-999,-999.0,3.0,68,0.00,,,-99.99,0.000000,,2013-04-20 06:52:00,
2013-04-20 01:01:00,43.0,36.0,-100.00,North,-999,-999.0,6.0,75,0.00,,,-99.99,0.000000,,2013-04-20 07:01:00,
2013-04-20 01:11:00,43.0,35.0,-100.00,North,-999,-999.0,6.0,73,0.00,,,-99.99,0.000000,,2013-04-20 07:11:00,
2013-04-20 01:21:00,43.0,37.0,-100.00,North,-999,-999.0,8.0,78,0.00,,,-99.99,0.000000,,2013-04-20 07:21:00,
2013-04-20 01:31:00,43.0,37.0,-100.00,North,-999,-999.0,6.0,79,0.00,,,-99.99,0.000000,,2013-04-20 07:31:00,
2013-04-20 01:42:00,43.0,37.0,-100.00,North,-999,-999.0,4.0,78,0.00,,,-99.99,0.000000,,2013-04-20 07:42:00,
2013-04-20 01:52:00,43.0,37.0,-100.00,North,-999,-999.0,3.0,80,0.00,,,-99.99,0.000000,,2013-04-20 07:52:00,
2013-04-20 02:01:00,42.0,37.0,-100.00,North,-999,-999.0,4.0,82,0.00,,,-99.99,0.000000,,2013-04-20 08:01:00,
2013-04-20 02:11:00,44.0,37.0,-100.00,North,-999,-999.0,8.0,76,0.00,,,-99.99,0.000000,,2013-04-20 08:11:00,
2013-04-20 02:21:00,44.0,36.0,-100.00,North,-999,-999.0,10.0,73,0.00,,,-99.99,0.000000,,2013-04-20 08:21:00,
2013-04-20 02:31:00,43.0,37.0,-100.00,North,-999,-999.0,5.0,80,0.00,,,-99.99,0.000000,,2013-04-20 08:31:00,
2013-04-20 02:42:00,43.0,37.0,-100.00,North,-999,-999.0,14.0,79,0.00,,,-99.99,0.000000,,2013-04-20 08:42:00,
2013-04-20 02:50:00,43.0,37.0,-100.00,North,-999,-999.0,11.0,81,0.00,,,-99.99,0.000000,,2013-04-20 08:50:00,
2013-04-20 02:51:00,42.0,38.0,-100.00,North,-999,-999.0,10.0,84,0.00,,,-99.99,0.000000,,2013-04-20 08:51:00,
2013-04-20 03:01:00,42.0,38.0,-100.00,North,-999,-999.0,13.0,84,0.00,,,-99.99,0.000000,,2013-04-20 09:01:00,
2013-04-20 03:11:00,43.0,37.0,-100.00,North,-999,-999.0,11.0,81,0.00,,,-99.99,0.000000,,2013-04-20 09:11:00,
2013-04-20 03:21:00,43.0,37.0,-100.00,North,-999,-999.0,11.0,81,0.00,,,-99.99,0.000000,,2013-04-20 09:21:00,
2013-04-20 03:32:00,43.0,37.0,-100.00,North,-999,-999.0,11.0,81,0.00,,,-99.99,0.000000,,2013-04-20 09:32:00,
2013-04-20 03:43:00,43.0,37.0,-100.00,North,-999,-999.0,11.0,81,0.00,,,-99.99,0.000000,,2013-04-20 09:43:00,
2013-04-20 04:23:00,40.0,38.0,-100.00,North,-999,-999.0,8.0,91,0.00,,,-99.99,0.000000,,2013-04-20 10:23:00,
2013-04-20 04:33:00,40.0,38.0,-100.00,North,-999,-999.0,6.0,90,0.00,,,-99.99,0.000000,,2013-04-20 10:33:00,
2013-04-20 04:42:00,40.0,38.0,-100.00,North,-999,-999.0,4.0,91,0.00,,,-99.99,0.000000,,2013-04-20 10:42:00,
2013-04-20 04:53:00,40.0,38.0,-100.00,North,-999,-999.0,5.0,92,0.00,,,-99.99,0.000000,,2013-04-20 10:53:00,
2013-04-20 05:02:00,40.0,38.0,-100.00,North,-999,-999.0,3.0,93,0.00,,,-99.99,0.000000,,2013-04-20 11:02:00,
2013-04-20 05:12:00,40.0,38.0,-100.00,North,-999,-999.0,4.0,92,0.00,,,-99.99,0.000000,,2013-04-20 11:12:00,
2013-04-20 05:22:00,40.0,38.0,-100.00,North,-999,-999.0,8.0,92,0.00,,,-99.99,0.000000,,2013-04-20 11:22:00,
2013-04-20 05:31:00,40.0,37.0,-100.00,North,-999,-999.0,8.0,90,0.00,,,-99.99,0.000000,,2013-04-20 11:31:00,
2013-04-20 05:42:00,40.0,37.0,-100.00,North,-999,-999.0,13.0,89,0.00,,,-99.99,0.000000,,2013-04-20 11:42:00,
2013-04-20 05:52:00,40.0,37.0,-100.00,North,-999,-999.0,11.0,91,0.00,,,-99.99,0.000000,,2013-04-20 11:52:00,
2013-04-20 06:02:00,40.0,37.0,-100.00,North,-999,-999.0,12.0,89,0.00,,,-99.99,0.000000,,2013-04-20 12:02:00,
2013-04-20 06:11:00,40.0,37.0,-100.00,North,-999,-999.0,11.0,88,0.00,,,-99.99,0.000000,,2013-04-20 12:11:00,
2013-04-20 06:22:00,40.0,36.0,-100.00,North,-999,-999.0,10.0,85,0.00,,,-99.99,0.000000,,2013-04-20 12:22:00,
2013-04-20 06:32:00,40.0,36.0,-100.00,North,-999,-999.0,16.0,87,0.00,,,-99.99,0.000000,,2013-04-20 12:32:00,
2013-04-20 06:41:00,40.0,37.0,-100.00,North,-999,-999.0,15.0,88,0.00,,,-99.99,0.000000,,2013-04-20 12:41:00,
2013-04-20 06:51:00,40.0,37.0,-100.00,North,-999,-999.0,12.0,87,0.00,,,-99.99,0.000000,,2013-04-20 12:51:00,
2013-04-20 07:02:00,41.0,36.0,-100.00,North,-999,-999.0,13.0,85,0.00,,,-99.99,2.000000,,2013-04-20 13:02:00,
2013-04-20 07:11:00,39.0,37.0,-100.00,North,-999,-999.0,15.0,90,0.00,,,-99.99,4.000000,,2013-04-20 13:11:00,
2013-04-20 07:21:00,40.0,36.0,-100.00,North,-999,-999.0,14.0,87,0.00,,,-99.99,8.000000,,2013-04-20 13:21:00,
2013-04-20 07:31:00,40.0,36.0,-100.00,North,-999,-999.0,12.0,86,0.00,,,-99.99,14.000000,,2013-04-20 13:31:00,
2013-04-20 07:42:00,41.0,36.0,-100.00,North,-999,-999.0,13.0,84,0.00,,,-99.99,17.000000,,2013-04-20 13:42:00,
2013-04-20 07:50:00,42.0,36.0,-100.00,North,-999,-999.0,11.0,81,0.00,,,-99.99,64.000000,,2013-04-20 13:50:00,
2013-04-20 07:52:00,41.0,36.0,-100.00,North,-999,-999.0,13.0,84,0.00,,,-99.99,30.000000,,2013-04-20 13:52:00,
2013-04-20 08:02:00,41.0,36.0,-100.00,North,-999,-999.0,11.0,83,0.00,,,-99.99,55.000000,,2013-04-20 14:02:00,
2013-04-20 08:11:00,42.0,36.0,-100.00,North,-999,-999.0,11.0,81,0.00,,,-99.99,64.000000,,2013-04-20 14:11:00,
2013-04-20 08:21:00,42.0,36.0,-100.00,North,-999,-999.0,11.0,81,0.00,,,-99.99,64.000000,,2013-04-20 14:21:00,
2013-04-20 08:31:00,42.0,36.0,-100.00,North,-999,-999.0,11.0,81,0.00,,,-99.99,64.000000,,2013-04-20 14:31:00,
2013-04-20 08:42:00,42.0,36.0,-100.00,North,-999,-999.0,11.0,81,0.00,,,-99.99,64.000000,,2013-04-20 14:42:00,
2013-04-20 09:22:00,46.0,36.0,-100.00,North,-999,-999.0,4.0,68,0.00,,,-99.99,330.000000,,2013-04-20 15:22:00,
2013-04-20 09:33:00,47.0,34.0,-100.00,North,-999,-999.0,2.0,62,0.00,,,-99.99,289.000000,,2013-04-20 15:33:00,
2013-04-20 09:43:00,46.0,34.0,-100.00,North,-999,-999.0,4.0,62,0.00,,,-99.99,218.000000,,2013-04-20 15:43:00,
2013-04-20 09:53:00,46.0,34.0,-100.00,North,-999,-999.0,4.0,62,0.00,,,-99.99,213.000000,,2013-04-20 15:53:00,
2013-04-20 10:03:00,47.0,33.0,-100.00,North,-999,-999.0,4.0,59,0.00,,,-99.99,344.000000,,2013-04-20 16:03:00,
2013-04-20 10:12:00,47.0,33.0,-100.00,North,-999,-999.0,5.0,58,0.00,,,-99.99,344.000000,,2013-04-20 16:12:00,
2013-04-20 10:23:00,48.0,34.0,-100.00,North,-999,-999.0,4.0,57,0.00,,,-99.99,368.000000,,2013-04-20 16:23:00,
2013-04-20 10:32:00,48.0,34.0,-100.00,North,-999,-999.0,6.0,58,0.00,,,-99.99,336.000000,,2013-04-20 16:32:00,
2013-04-20 10:42:00,48.0,35.0,-100.00,North,-999,-999.0,5.0,60,0.00,,,-99.99,398.000000,,2013-04-20 16:42:00,
2013-04-20 10:52:00,49.0,35.0,-100.00,North,-999,-999.0,5.0,59,0.00,,,-99.99,317.000000,,2013-04-20 16:52:00,
2013-04-20 11:02:00,49.0,34.0,-100.00,North,-999,-999.0,4.0,56,0.00,,,-99.99,253.000000,,2013-04-20 17:02:00,
2013-04-20 11:11:00,48.0,34.0,-100.00,North,-999,-999.0,7.0,57,0.00,,,-99.99,303.000000,,2013-04-20 17:11:00,
2013-04-20 11:22:00,49.0,35.0,-100.00,North,-999,-999.0,11.0,58,0.00,,,-99.99,269.000000,,2013-04-20 17:22:00,
2013-04-20 11:32:00,47.0,37.0,-100.00,North,-999,-999.0,16.0,67,0.00,,,-99.99,314.000000,,2013-04-20 17:32:00,
2013-04-20 11:42:00,48.0,36.0,-100.00,North,-999,-999.0,18.0,63,0.00,,,-99.99,310.000000,,2013-04-20 17:42:00,
2013-04-20 11:52:00,48.0,37.0,-100.00,North,-999,-999.0,16.0,66,0.00,,,-99.99,323.000000,,2013-04-20 17:52:00,
2013-04-20 12:01:00,49.0,37.0,-100.00,North,-999,-999.0,13.0,62,0.00,,,-99.99,509.000000,,2013-04-20 18:01:00,
2013-04-20 12:12:00,47.0,38.0,-100.00,North,-999,-999.0,16.0,69,0.00,,,-99.99,936.000000,,2013-04-20 18:12:00,
2013-04-20 12:22:00,49.0,37.0,-100.00,North,-999,-999.0,14.0,64,0.00,,,-99.99,1085.000000,,2013-04-20 18:22:00,
2013-04-20 12:32:00,50.0,40.0,-100.00,North,-999,-999.0,13.0,68,0.00,,,-99.99,1066.000000,,2013-04-20 18:32:00,
2013-04-20 12:41:00,50.0,41.0,-100.00,North,-999,-999.0,14.0,73,0.00,,,-99.99,1192.000000,,2013-04-20 18:41:00,
2013-04-20 12:50:00,50.0,36.0,-100.00,North,-999,-999.0,14.0,59,0.00,,,-99.99,564.000000,,2013-04-20 18:50:00,
2013-04-20 12:52:00,50.0,39.0,-100.00,North,-999,-999.0,16.0,65,0.00,,,-99.99,544.000000,,2013-04-20 18:52:00,
2013-04-20 13:01:00,49.0,38.0,-100.00,North,-999,-999.0,15.0,66,0.00,,,-99.99,1256.000000,,2013-04-20 19:01:00,
2013-04-20 13:11:00,50.0,36.0,-100.00,North,-999,-999.0,14.0,59,0.00,,,-99.99,564.000000,,2013-04-20 19:11:00,
2013-04-20 13:21:00,50.0,36.0,-100.00,North,-999,-999.0,14.0,59,0.00,,,-99.99,564.000000,,2013-04-20 19:21:00,
2013-04-20 13:31:00,50.0,36.0,-100.00,North,-999,-999.0,14.0,59,0.00,,,-99.99,564.000000,,2013-04-20 19:31:00,
2013-04-20 13:42:00,50.0,36.0,-100.00,North,-999,-999.0,14.0,59,0.00,,,-99.99,564.000000,,2013-04-20 19:42:00,
2013-04-20 14:22:00,52.0,38.0,-100.00,North,-999,-999.0,15.0,58,0.00,,,-99.99,1428.000000,,2013-04-20 20:22:00,
2013-04-20 14:32:00,52.0,36.0,-100.00,North,-999,-999.0,13.0,54,0.00,,,-99.99,544.000000,,2013-04-20 20:32:00,
2013-04-20 14:42:00,51.0,37.0,-100.00,North,-999,-999.0,11.0,58,0.00,,,-99.99,567.000000,,2013-04-20 20:42:00,
2013-04-20 14:52:00,51.0,36.0,-100.00,North,-999,-999.0,9.0,56,0.00,,,-99.99,454.000000,,2013-04-20 20:52:00,
2013-04-20 15:01:00,51.0,36.0,-100.00,North,-999,-999.0,9.0,55,0.00,,,-99.99,475.000000,,2013-04-20 21:01:00,
2013-04-20 15:12:00,51.0,37.0,-100.00,North,-999,-999.0,11.0,57,0.00,,,-99.99,429.000000,,2013-04-20 21:12:00,
2013-04-20 15:21:00,51.0,36.0,-100.00,North,-999,-999.0,9.0,56,0.00,,,-99.99,327.000000,,2013-04-20 21:21:00,
2013-04-20 15:32:00,52.0,37.0,-100.00,North,-999,-999.0,4.0,55,0.00,,,-99.99,382.000000,,2013-04-20 21:32:00,
2013-04-20 15:43:00,53.0,37.0,-100.00,North,-999,-999.0,6.0,54,0.00,,,-99.99,572.000000,,2013-04-20 21:43:00,
2013-04-20 15:52:00,51.0,36.0,-100.00,North,-999,-999.0,9.0,56,0.00,,,-99.99,195.000000,,2013-04-20 21:52:00,
2013-04-20 16:02:00,51.0,39.0,-100.00,North,-999,-999.0,17.0,63,0.00,,,-99.99,477.000000,,2013-04-20 22:02:00,
2013-04-20 16:12:00,52.0,37.0,-100.00,North,-999,-999.0,14.0,56,0.00,,,-99.99,513.000000,,2013-04-20 22:12:00,
2013-04-20 16:22:00,52.0,36.0,-100.00,North,-999,-999.0,10.0,55,0.00,,,-99.99,576.000000,,2013-04-20 22:22:00,
2013-04-20 16:32:00,52.0,34.0,-100.00,North,-999,-999.0,10.0,49,0.00,,,-99.99,388.000000,,2013-04-20 22:32:00,
2013-04-20 16:42:00,53.0,35.0,-100.00,North,-999,-999.0,10.0,51,0.00,,,-99.99,845.000000,,2013-04-20 22:42:00,
2013-04-20 16:52:00,52.0,35.0,-100.00,North,-999,-999.0,11.0,52,0.00,,,-99.99,200.000000,,2013-04-20 22:52:00,
2013-04-20 17:02:00,54.0,35.0,-100.00,North,-999,-999.0,9.0,48,0.00,,,-99.99,783.000000,,2013-04-20 23:02:00,
2013-04-20 17:11:00,53.0,33.0,-100.00,North,-999,-999.0,11.0,47,0.00,,,-99.99,760.000000,,2013-04-20 23:11:00,
2013-04-20 17:22:00,54.0,36.0,-100.00,North,-999,-999.0,8.0,50,0.00,,,-99.99,172.000000,,2013-04-20 23:22:00,
2013-04-20 17:32:00,54.0,34.0,-100.00,North,-999,-999.0,10.0,47,0.00,,,-99.99,564.000000,,2013-04-20 23:32:00,
2013-04-20 17:41:00,52.0,35.0,-100.00,North,-999,-999.0,9.0,53,0.00,,,-99.99,178.000000,,2013-04-20 23:41:00,
2013-04-20 17:50:00,52.0,34.0,-100.00,North,-999,-999.0,6.0,50,0.00,,,-99.99,584.000000,,2013-04-20 23:50:00,
2013-04-20 17:52:00,52.0,35.0,-100.00,North,-999,-999.0,10.0,52,0.00,,,-99.99,190.000000,,2013-04-20 23:52:00,
2013-04-20 18:01:00,52.0,34.0,-100.00,North,-999,-999.0,9.0,52,0.00,,,-99.99,169.000000,,2013-04-21 00:01:00,
2013-04-20 18:11:00,52.0,34.0,-100.00,North,-999,-999.0,6.0,50,0.00,,,-99.99,584.000000,,2013-04-21 00:11:00,
2013-04-20 18:21:00,52.0,34.0,-100.00,North,-999,-999.0,6.0,50,0.00,,,-99.99,584.000000,,2013-04-21 00:21:00,
2013-04-20 18:31:00,52.0,34.0,-100.00,North,-999,-999.0,6.0,50,0.00,,,-99.99,584.000000,,2013-04-21 00:31:00,
2013-04-20 18:41:00,52.0,34.0,-100.00,North,-999,-999.0,6.0,50,0.00,,,-99.99,584.000000,,2013-04-21 00:41:00,
2013-04-20 19:22:00,54.0,32.0,-100.00,North,-999,-999.0,5.0,43,0.00,,,-99.99,211.000000,,2013-04-21 01:22:00,
2013-04-20 19:32:00,54.0,32.0,-100.00,North,-999,-999.0,3.0,42,0.00,,,-99.99,184.000000,,2013-04-21 01:32:00,
2013-04-20 19:42:00,54.0,31.0,-100.00,North,-999,-999.0,2.0,42,0.00,,,-99.99,154.000000,,2013-04-21 01:42:00,
2013-04-20 19:52:00,52.0,35.0,-100.00,North,-999,-999.0,5.0,51,0.00,,,-99.99,81.000000,,2013-04-21 01:52:00,
2013-04-20 20:01:00,52.0,35.0,-100.00,North,-999,-999.0,5.0,51,0.00,,,-99.99,81.000000,,2013-04-21 02:01:00,
2013-04-20 20:11:00,51.0,36.0,-100.00,North,-999,-999.0,5.0,56,0.00,,,-99.99,47.000000,,2013-04-21 02:11:00,
2013-04-20 20:21:00,50.0,37.0,-100.00,North,-999,-999.0,3.0,59,0.00,,,-99.99,15.000000,,2013-04-21 02:21:00,
2013-04-20 20:31:00,48.0,35.0,-100.00,North,-999,-999.0,2.0,62,0.00,,,-99.99,6.000000,,2013-04-21 02:31:00,
2013-04-20 20:41:00,46.0,36.0,-100.00,North,-999,-999.0,4.0,67,0.00,,,-99.99,2.000000,,2013-04-21 02:41:00,
2013-04-20 20:51:00,45.0,35.0,-100.00,North,-999,-999.0,5.0,67,0.00,,,-99.99,0.000000,,2013-04-21 02:51:00,
2013-04-20 21:01:00,45.0,35.0,-100.00,North,-999,-999.0,5.0,67,0.00,,,-99.99,0.000000,,2013-04-21 03:01:00,
2013-04-20 21:11:00,45.0,35.0,-100.00,North,-999,-999.0,5.0,67,0.00,,,-99.99,0.000000,,2013-04-21 03:11:00,
2013-04-20 21:21:00,43.0,35.0,-100.00,North,-999,-999.0,5.0,73,0.00,,,-99.99,0.000000,,2013-04-21 03:21:00,
2013-04-20 21:32:00,42.0,35.0,-100.00,North,-999,-999.0,4.0,76,0.00,,,-99.99,0.000000,,2013-04-21 03:32:00,
2013-04-20 21:42:00,43.0,35.0,-100.00,North,-999,-999.0,3.0,73,0.00,,,-99.99,0.000000,,2013-04-21 03:42:00,
2013-04-20 21:52:00,42.0,35.0,-100.00,North,-999,-999.0,5.0,75,0.00,,,-99.99,0.000000,,2013-04-21 03:52:00,
2013-04-20 22:02:00,42.0,35.0,-100.00,North,-999,-999.0,5.0,75,0.00,,,-99.99,0.000000,,2013-04-21 04:02:00,
2013-04-20 22:12:00,42.0,35.0,-100.00,North,-999,-999.0,4.0,76,0.00,,,-99.99,0.000000,,2013-04-21 04:12:00,
2013-04-20 22:22:00,43.0,35.0,-100.00,North,-999,-999.0,5.0,74,0.00,,,-99.99,0.000000,,2013-04-21 04:22:00,
2013-04-20 22:32:00,42.0,35.0,-100.00,North,-999,-999.0,5.0,75,0.00,,,-99.99,0.000000,,2013-04-21 04:32:00,
2013-04-20 22:42:00,42.0,35.0,-100.00,North,-999,-999.0,6.0,75,0.00,,,-99.99,0.000000,,2013-04-21 04:42:00,
2013-04-20 22:50:00,39.0,32.0,-100.00,North,-999,-999.0,3.0,74,0.00,,,-99.99,0.000000,,2013-04-21 04:50:00,
2013-04-20 22:52:00,40.0,34.0,-100.00,North,-999,-999.0,5.0,78,0.00,,,-99.99,0.000000,,2013-04-21 04:52:00,
2013-04-20 23:02:00,41.0,34.0,-100.00,North,-999,-999.0,3.0,77,0.00,,,-99.99,0.000000,,2013-04-21 05:02:00,
2013-04-20 23:12:00,39.0,32.0,-100.00,North,-999,-999.0,3.0,74,0.00,,,-99.99,0.000000,,2013-04-21 05:12:00,
2013-04-20 23:21:00,39.0,32.0,-100.00,North,-999,-999.0,3.0,74,0.00,,,-99.99,0.000000,,2013-04-21 05:21:00,
2013-04-20 23:32:00,39.0,32.0,-100.00,North,-999,-999.0,3.0,74,0.00,,,-99.99,0.000000,,2013-04-21 05:32:00,
2013-04-20 23:42:00,39.0,32.0,-100.00,North,-999,-999.0,3.0,74,0.00,,,-99.99,0.000000,,2013-04-21 05:42:00,